COSMOS 409

Satellite information

Favourite Embed

Satellite Type and Status

PAYLOADIN ORBIT

Key statistics

Satellite COSMOS 409 at a glance.

Uptime

19953

Days in orbit

Revolutions

≈ 13.2

Per day

Orbit

LEO

Low Earth Orbit

Inclination

74.0

Latest

Satellite identification and parameters

Extended collection of information and parameters for COSMOS 409.

Object identification

Identified? True

Debris? False

Object name: COSMOS 409

International designator: 1971-038A

Object number (NORAD): 5180

Object ID (CCSDS): 5180

Country: COMMONWEALTH OF INDEPENDENT STATES (CIS)

Current information (Y/N): Y

RCS size: LARGE

Orbital parameters

Period: 109.27 minutes

Inclination: 74.0022 deg

SMA: 7571.124 km

Apoapsis: 1210.798 km

Periapsis: 1175.18 km

RAAN: 294.9395 deg

Eccentricy: 0.00235221

Argument of periapsis: 221.8365 deg

Mean anomaly: 305.7552 deg

Mean motion: 13.17838557 rev/day

Mean motion (dot): 0.00000131 rev/day2

B* drag term: 0.00038695111 1/REarth

Two-line elements (TLE)

Creation date: Dec. 12, 2025, 10:14 a.m.

Reference frame: TEME

Reference center: EARTH

Epoch: Dec. 12, 2025, 6:53 a.m. UTC

TLE line 0: 0 COSMOS 409

TLE line 1: 1 05180U 71038A 25346.28711258 .00000131 00000-0 38695-3 0 9996

TLE line 2: 2 05180 74.0022 294.9395 0023522 221.8365 305.7552 13.17838557627621

Live tracking on map

Real-time ground track for satellite COSMOS 409.

In-orbit conjunctions

A list of the most updated potential collisions computed for object COSMOS 409.

Target Orbit TCA Probability of collision Miss distance Type
FENGYUN 1C DEB SSO 2024-09-20 11:41:24 0.0001356427 105.0 (m) DEBRIS

Associated space launch

The Sfera or Geoid series were the first soviet geodetic satellites to improve the accuracy of maps. The development of the satellites started in 1965 at NPO-PM.

COSMOS 409 was lifted into orbit during the mission ‘Kosmos-3M | Sfera 6’, on board a Kosmos-3M space rocket.

The launch took place on April 28, 1971, 2:35 p.m. from 132/1 (132L).

For more information about the launch, click the button.

Launch to space Kosmos-3M | Sfera 6
Kosmos-3M | Sfera 6

Agency: N/A

Status: Launch Successful

Launch date: April 28, 1971, 2:35 p.m. UTC

Rocket: Kosmos-3M

Launch pad: 132/1 (132L)

Location: Plesetsk Cosmodrome, Russian Federation

...

Latest news about this satellite

There are no fresh news available about this satellite. Check back as we update our databases every day.


Newsletter sign-up

Weekly statistics, charts and insights to help you stay on top of the space industry.